Zurück zum Katalog

ATLAS 5 CENTAUR DEB

LostHEO
NORAD 49374·DEBRIS·🇺🇸 United States

Gestartet Oct 17, 2018 von Cape Canaveral Space Force Station

Loading…

Nächste Überflüge (nächste 24 Stunden)

TLE

VeraltetSource: Space-Track

Epoche: Jan 4, 2022, 23:19 UTC

1 49374U 18079GB  22004.97188240 -.00000067  00000-0  00000+0 0  9992
2 49374  11.2629 170.4519 4634612  64.3355 335.9567  1.96340223  2638

Verfolge ATLAS 5 CENTAUR DEB in Echtzeit mit AllMySat

Download on the App Store